KLM217 EHAM-EGPF

Flight info

Callsign KLM217
Flight time 1h 5m
Altitude 34000
Route BERGI L602 SUPUR P1 GODOS DCT ROXAT DCT BAZNA DCT ANMAZ DCT EWOKE DCT AGPED
Aircraft A21N/M-SDE2E3FGHIRWXY/LB1

Departure

Time 2026-05-07 10:14
Airport Amsterdam Airport Schiphol (EHAM)

Arrival

Time 2026-05-07 11:20
Airport Glasgow Airport (EGPF)
Time Latitude Longitude Altitude Speed Heading
2026-05-07 09:37 52.30467 4.76777 4 ft 0 kts 322°
2026-05-07 10:02 52.30458 4.76788 4 ft 4 kts 322°
2026-05-07 10:02 52.30441 4.76808 4 ft 4 kts 318°
2026-05-07 10:02 52.30428 4.76837 4 ft 4 kts 282°
2026-05-07 10:03 52.30430 4.76872 4 ft 4 kts 244°
2026-05-07 10:03 52.30442 4.76905 4 ft 4 kts 234°
2026-05-07 10:03 52.30451 4.76925 4 ft 1 kts 238°
2026-05-07 10:07 52.30450 4.76925 4 ft 0 kts 238°
2026-05-07 10:08 52.30442 4.76903 4 ft 4 kts 238°
2026-05-07 10:08 52.30418 4.76841 4 ft 8 kts 238°
2026-05-07 10:08 52.30379 4.76738 4 ft 13 kts 238°
2026-05-07 10:08 52.30325 4.76598 4 ft 16 kts 238°
2026-05-07 10:09 52.30259 4.76431 4 ft 20 kts 236°
2026-05-07 10:09 52.30177 4.76222 4 ft 23 kts 238°
2026-05-07 10:09 52.30087 4.75984 4 ft 26 kts 238°
2026-05-07 10:09 52.29997 4.75745 4 ft 17 kts 238°
2026-05-07 10:10 52.29930 4.75565 4 ft 20 kts 238°
2026-05-07 10:10 52.29858 4.75377 4 ft 13 kts 238°
2026-05-07 10:10 52.29835 4.75219 4 ft 17 kts 289°
2026-05-07 10:10 52.29914 4.75059 4 ft 20 kts 313°
2026-05-07 10:11 52.30015 4.74879 4 ft 23 kts 311°
2026-05-07 10:11 52.30129 4.74665 14 ft 27 kts 311°
2026-05-07 10:11 52.30260 4.74421 15 ft 30 kts 311°
2026-05-07 10:11 52.30328 4.74290 4 ft 11 kts 309°
2026-05-07 10:12 52.30370 4.74187 5 ft 10 kts 281°
2026-05-07 10:12 52.30347 4.74072 4 ft 7 kts 223°
2026-05-07 10:12 52.30314 4.74024 4 ft 0 kts 219°
2026-05-07 10:12 52.30306 4.74012 4 ft 4 kts 219°
2026-05-07 10:13 52.30270 4.73968 4 ft 9 kts 216°
2026-05-07 10:13 52.30214 4.73903 4 ft 6 kts 216°
2026-05-07 10:13 52.30184 4.73823 4 ft 11 kts 264°
2026-05-07 10:13 52.30259 4.73745 2 ft 19 kts 355°
2026-05-07 10:14 52.30495 4.73763 3 ft 63 kts
2026-05-07 10:14 52.31165 4.73830 4 ft 127 kts
2026-05-07 10:14 52.32214 4.73926 95 ft 167 kts
2026-05-07 10:14 52.33378 4.74029 649 ft 170 kts
2026-05-07 10:15 52.34559 4.73905 1309 ft 176 kts 346°
2026-05-07 10:15 52.35776 4.73307 1868 ft 191 kts 343°
2026-05-07 10:15 52.37096 4.72623 2556 ft 206 kts 343°
2026-05-07 10:15 52.38522 4.71865 3146 ft 228 kts 343°
2026-05-07 10:16 52.40108 4.71022 3714 ft 248 kts 343°
2026-05-07 10:16 52.41788 4.70144 4554 ft 258 kts 343°
2026-05-07 10:16 52.43512 4.69268 5488 ft 261 kts 343°
2026-05-07 10:16 52.45270 4.68416 6403 ft 266 kts 343°
2026-05-07 10:17 52.47063 4.67568 7250 ft 271 kts 343°
2026-05-07 10:17 52.48891 4.66708 8154 ft 275 kts 343°
2026-05-07 10:17 52.50745 4.65840 9066 ft 280 kts 343°
2026-05-07 10:17 52.52628 4.64953 9988 ft 284 kts 343°
2026-05-07 10:18 52.54572 4.64031 10592 ft 300 kts 343°
2026-05-07 10:18 52.56647 4.63051 10949 ft 322 kts 343°
2026-05-07 10:18 52.58873 4.61946 11258 ft 344 kts 338°
2026-05-07 10:18 52.60954 4.59841 11545 ft 363 kts 318°
2026-05-07 10:19 52.62768 4.56818 11871 ft 379 kts 313°
2026-05-07 10:19 52.64581 4.53610 12424 ft 386 kts 313°
2026-05-07 10:19 52.66420 4.50325 13093 ft 388 kts 312°
2026-05-07 10:19 52.68237 4.47058 13726 ft 392 kts 312°
2026-05-07 10:20 52.70091 4.43724 14278 ft 395 kts 312°
2026-05-07 10:20 52.71954 4.40366 14806 ft 398 kts 312°
2026-05-07 10:20 52.73829 4.36984 15323 ft 401 kts 312°
2026-05-07 10:20 52.75711 4.33583 15850 ft 403 kts 312°
2026-05-07 10:21 52.77603 4.30155 16335 ft 405 kts 312°
2026-05-07 10:21 52.79509 4.26693 16795 ft 409 kts 312°
2026-05-07 10:21 52.81428 4.23205 17246 ft 412 kts 311°
2026-05-07 10:21 52.83365 4.19683 17699 ft 414 kts 311°
2026-05-07 10:22 52.85306 4.16158 18176 ft 416 kts 311°
2026-05-07 10:22 52.87261 4.12601 18585 ft 419 kts 311°
2026-05-07 10:22 52.89227 4.09015 18967 ft 422 kts 311°
2026-05-07 10:22 52.91207 4.05397 19320 ft 425 kts 311°
2026-05-07 10:23 52.93195 4.01759 19711 ft 427 kts 311°
2026-05-07 10:23 52.95193 3.98091 20068 ft 430 kts 311°
2026-05-07 10:23 52.97201 3.94400 20434 ft 433 kts 311°
2026-05-07 10:23 52.99221 3.90687 20835 ft 434 kts 311°
2026-05-07 10:24 53.01248 3.86946 21198 ft 437 kts 311°
2026-05-07 10:24 53.03289 3.83181 21556 ft 440 kts 312°
2026-05-07 10:24 53.05344 3.79390 21929 ft 443 kts 312°
2026-05-07 10:24 53.07414 3.75565 22312 ft 446 kts 312°
2026-05-07 10:25 53.09494 3.71714 22706 ft 448 kts 312°
2026-05-07 10:25 53.11585 3.67838 23095 ft 451 kts 312°
2026-05-07 10:25 53.13679 3.63943 23477 ft 454 kts 312°
2026-05-07 10:25 53.15762 3.60060 23846 ft 457 kts 312°
2026-05-07 10:26 53.17914 3.56046 24198 ft 459 kts 312°
2026-05-07 10:26 53.20047 3.52066 24540 ft 462 kts 312°
2026-05-07 10:26 53.22191 3.48053 24886 ft 464 kts 312°
2026-05-07 10:26 53.24300 3.44057 25254 ft 465 kts 310°
2026-05-07 10:27 53.26185 3.39665 25721 ft 465 kts 304°
2026-05-07 10:27 53.27953 3.35085 26186 ft 463 kts 303°
2026-05-07 10:27 53.29644 3.30677 26630 ft 462 kts 303°
2026-05-07 10:27 53.31425 3.26028 27087 ft 461 kts 303°
2026-05-07 10:28 53.33129 3.21579 27516 ft 460 kts 304°
2026-05-07 10:28 53.34877 3.17016 27978 ft 459 kts 304°
2026-05-07 10:28 53.36594 3.12523 28395 ft 458 kts 304°
2026-05-07 10:28 53.38309 3.08029 28841 ft 457 kts 304°
2026-05-07 10:29 53.40016 3.03547 29263 ft 456 kts 304°
2026-05-07 10:29 53.41813 2.99173 29692 ft 454 kts 310°
2026-05-07 10:29 53.43846 2.95141 30151 ft 452 kts 312°
2026-05-07 10:30 53.47922 2.87197 30847 ft 451 kts 312°
2026-05-07 10:30 53.49992 2.83148 31195 ft 451 kts 312°
2026-05-07 10:30 53.52010 2.79193 31536 ft 451 kts 312°
2026-05-07 10:30 53.54046 2.75198 31879 ft 450 kts 312°
2026-05-07 10:31 53.56106 2.71148 32243 ft 450 kts 312°
2026-05-07 10:31 53.58111 2.67197 32581 ft 449 kts 312°
2026-05-07 10:31 53.60141 2.63188 32917 ft 449 kts 312°
2026-05-07 10:31 53.62163 2.59190 33243 ft 449 kts 312°
2026-05-07 10:32 53.64188 2.55179 33543 ft 449 kts 312°
2026-05-07 10:32 53.66211 2.51167 33839 ft 449 kts 312°
2026-05-07 10:32 53.68230 2.47163 34105 ft 450 kts 312°
2026-05-07 10:32 53.70254 2.43139 34154 ft 449 kts 312°
2026-05-07 10:33 53.74285 2.35094 34133 ft 447 kts 312°
2026-05-07 10:33 53.78293 2.27076 34125 ft 446 kts 312°
2026-05-07 10:34 53.82292 2.19048 34126 ft 446 kts 312°
2026-05-07 10:34 53.86283 2.10998 34125 ft 446 kts 311°
2026-05-07 10:35 53.90276 2.02936 34126 ft 447 kts 311°
2026-05-07 10:35 53.94264 1.94865 34128 ft 447 kts 311°
2026-05-07 10:36 53.98245 1.86766 34128 ft 447 kts 311°
2026-05-07 10:36 54.01551 1.80018 34128 ft 446 kts 311°
2026-05-07 10:37 54.05508 1.71913 34127 ft 446 kts 310°
2026-05-07 10:37 54.09471 1.63787 34128 ft 446 kts 310°
2026-05-07 10:38 54.13421 1.55650 34128 ft 445 kts 310°
2026-05-07 10:38 54.17352 1.47517 34124 ft 444 kts 309°
2026-05-07 10:39 54.20525 1.38461 34126 ft 446 kts 297°
2026-05-07 10:39 54.23245 1.28937 34125 ft 446 kts 297°
2026-05-07 10:40 54.25952 1.19461 34118 ft 440 kts 296°
2026-05-07 10:40 54.28647 1.10026 34119 ft 440 kts 297°
2026-05-07 10:41 54.31327 1.00605 34118 ft 441 kts 296°
2026-05-07 10:41 54.34011 0.91149 34118 ft 442 kts 296°
2026-05-07 10:42 54.36682 0.81697 34115 ft 441 kts 296°
2026-05-07 10:42 54.39357 0.72194 34115 ft 441 kts 296°
2026-05-07 10:43 54.42022 0.62697 34113 ft 441 kts 296°
2026-05-07 10:43 54.44678 0.53182 34111 ft 447 kts 296°
2026-05-07 10:44 54.47391 0.43423 34112 ft 457 kts 295°
2026-05-07 10:44 54.50134 0.33509 34111 ft 458 kts 295°
2026-05-07 10:45 54.52851 0.23650 34103 ft 456 kts 295°
2026-05-07 10:45 54.55570 0.13785 34099 ft 455 kts 296°
2026-05-07 10:46 54.58471 0.04072 34097 ft 453 kts 297°
2026-05-07 10:46 54.61351 -0.05553 34084 ft 456 kts 296°
2026-05-07 10:47 54.64279 -0.15394 34092 ft 463 kts 296°
2026-05-07 10:47 54.67219 -0.25296 34091 ft 464 kts 296°
2026-05-07 10:48 54.70155 -0.35231 34092 ft 464 kts 296°
2026-05-07 10:48 54.73077 -0.45164 34083 ft 464 kts 296°
2026-05-07 10:49 54.75989 -0.55099 34084 ft 460 kts 296°
2026-05-07 10:49 54.78829 -0.64836 34079 ft 455 kts 296°
2026-05-07 10:50 54.81695 -0.74710 34077 ft 460 kts 295°
2026-05-07 10:50 54.84546 -0.84550 33967 ft 446 kts 295°
2026-05-07 10:51 54.85926 -0.89341 33552 ft 443 kts 295°
2026-05-07 10:51 54.87304 -0.94123 33225 ft 443 kts 295°
2026-05-07 10:51 54.88679 -0.98906 32944 ft 442 kts 295°
2026-05-07 10:51 54.90046 -1.03678 32669 ft 441 kts 295°
2026-05-07 10:52 54.91412 -1.08453 32420 ft 442 kts 295°
2026-05-07 10:52 54.92786 -1.13256 32152 ft 444 kts 295°
2026-05-07 10:52 54.94154 -1.18062 31889 ft 443 kts 294°
2026-05-07 10:52 54.95510 -1.22879 31629 ft 444 kts 294°
2026-05-07 10:53 54.96716 -1.27817 31370 ft 444 kts 290°
2026-05-07 10:53 54.97882 -1.32789 31112 ft 443 kts 290°
2026-05-07 10:53 54.99041 -1.37770 30858 ft 444 kts 291°
2026-05-07 10:53 55.00203 -1.42769 30616 ft 445 kts 290°
2026-05-07 10:54 55.01363 -1.47768 30369 ft 445 kts 290°
2026-05-07 10:54 55.02517 -1.52741 30122 ft 443 kts 290°
2026-05-07 10:54 55.03669 -1.57719 29840 ft 443 kts 290°
2026-05-07 10:54 55.04820 -1.62708 29548 ft 444 kts 290°
2026-05-07 10:55 55.05974 -1.67735 29271 ft 445 kts 290°
2026-05-07 10:55 55.07102 -1.72647 28980 ft 430 kts 290°
2026-05-07 10:55 55.08196 -1.77427 28688 ft 417 kts 290°
2026-05-07 10:55 55.09251 -1.82040 28406 ft 403 kts 290°
2026-05-07 10:56 55.10274 -1.86521 28173 ft 390 kts 290°
2026-05-07 10:56 55.11259 -1.90841 27979 ft 376 kts 290°
2026-05-07 10:56 55.12263 -1.94984 27674 ft 367 kts 294°
2026-05-07 10:56 55.13479 -1.98886 27274 ft 365 kts 297°
2026-05-07 10:57 55.14751 -2.02736 26972 ft 364 kts 298°
2026-05-07 10:57 55.16014 -2.06542 26697 ft 362 kts 298°
2026-05-07 10:57 55.17275 -2.10354 26443 ft 361 kts 297°
2026-05-07 10:57 55.18530 -2.14161 26184 ft 360 kts 297°
2026-05-07 10:58 55.19774 -2.17949 25938 ft 358 kts 297°
2026-05-07 10:58 55.21009 -2.21723 25705 ft 358 kts 297°
2026-05-07 10:58 55.22248 -2.25514 25481 ft 358 kts 297°
2026-05-07 10:58 55.23479 -2.29292 25299 ft 357 kts 297°
2026-05-07 10:59 55.24713 -2.33079 25114 ft 365 kts 297°
2026-05-07 10:59 55.26013 -2.37085 24910 ft 390 kts 297°
2026-05-07 10:59 55.27392 -2.41342 24703 ft 412 kts 297°
2026-05-07 10:59 55.28846 -2.45829 24488 ft 433 kts 297°
2026-05-07 11:00 55.30360 -2.50506 24154 ft 443 kts 297°
2026-05-07 11:00 55.31873 -2.55167 23424 ft 437 kts 297°
2026-05-07 11:00 55.33368 -2.59787 22563 ft 433 kts 297°
2026-05-07 11:00 55.34848 -2.64374 21850 ft 429 kts 297°
2026-05-07 11:01 55.36310 -2.68920 21137 ft 426 kts 297°
2026-05-07 11:01 55.37766 -2.73457 20401 ft 425 kts 297°
2026-05-07 11:01 55.39197 -2.77927 19817 ft 415 kts 297°
2026-05-07 11:01 55.40591 -2.82282 19483 ft 399 kts 297°
2026-05-07 11:02 55.41919 -2.86442 19225 ft 382 kts 296°
2026-05-07 11:02 55.43189 -2.90425 18989 ft 363 kts 296°
2026-05-07 11:02 55.44393 -2.94211 18748 ft 346 kts 296°
2026-05-07 11:02 55.45532 -2.97816 18501 ft 329 kts 295°
2026-05-07 11:03 55.46351 -3.01462 18213 ft 313 kts 281°
2026-05-07 11:03 55.46781 -3.05188 17994 ft 308 kts 278°
2026-05-07 11:03 55.47154 -3.08906 17839 ft 307 kts 277°
2026-05-07 11:03 55.47530 -3.12603 17692 ft 305 kts 277°
2026-05-07 11:04 55.47911 -3.16285 17543 ft 307 kts 278°
2026-05-07 11:04 55.48297 -3.19978 17416 ft 304 kts 278°
2026-05-07 11:04 55.48683 -3.23635 17014 ft 303 kts 277°
2026-05-07 11:04 55.49069 -3.27306 16432 ft 306 kts 278°
2026-05-07 11:05 55.49458 -3.31002 15926 ft 305 kts 277°
2026-05-07 11:05 55.50060 -3.34566 15555 ft 305 kts 291°
2026-05-07 11:05 55.51103 -3.37840 15077 ft 308 kts 297°
2026-05-07 11:05 55.52236 -3.41088 14406 ft 315 kts 297°
2026-05-07 11:06 55.53394 -3.44424 13692 ft 321 kts 297°
2026-05-07 11:06 55.54557 -3.47808 12866 ft 323 kts 297°
2026-05-07 11:06 55.55711 -3.51185 12271 ft 316 kts 297°
2026-05-07 11:06 55.56812 -3.54423 12014 ft 299 kts 297°
2026-05-07 11:07 55.57853 -3.57498 11771 ft 288 kts 296°
2026-05-07 11:07 55.58877 -3.60538 11198 ft 286 kts 296°
2026-05-07 11:07 55.59892 -3.63557 10558 ft 285 kts 297°
2026-05-07 11:07 55.60894 -3.66535 10118 ft 279 kts 296°
2026-05-07 11:08 55.61869 -3.69453 9755 ft 269 kts 296°
2026-05-07 11:08 55.62797 -3.72247 9300 ft 259 kts 295°
2026-05-07 11:08 55.63689 -3.74953 8819 ft 250 kts 295°
2026-05-07 11:08 55.64562 -3.77525 8719 ft 234 kts 301°
2026-05-07 11:09 55.65564 -3.79804 9511 ft 239 kts 298°
2026-05-07 11:09 55.66402 -3.82346 9189 ft 240 kts 293°
2026-05-07 11:09 55.67186 -3.84949 9027 ft 240 kts 294°
2026-05-07 11:09 55.67999 -3.87553 8967 ft 241 kts 294°
2026-05-07 11:10 55.68807 -3.90073 8784 ft 230 kts 294°
2026-05-07 11:10 55.69613 -3.92557 8269 ft 237 kts 294°
2026-05-07 11:10 55.70467 -3.95107 7989 ft 243 kts 300°
2026-05-07 11:10 55.71772 -3.97093 7940 ft 255 kts 329°
2026-05-07 11:11 55.73430 -3.98204 7843 ft 254 kts 338°
2026-05-07 11:11 55.75122 -3.99109 7413 ft 255 kts 339°
2026-05-07 11:11 55.76826 -3.99991 6971 ft 255 kts 339°
2026-05-07 11:11 55.78532 -4.00870 6571 ft 255 kts 339°
2026-05-07 11:12 55.80210 -4.01733 6202 ft 253 kts 339°
2026-05-07 11:12 55.81915 -4.02605 5829 ft 251 kts 339°
2026-05-07 11:12 55.83568 -4.03447 5459 ft 249 kts 339°
2026-05-07 11:12 55.85227 -4.04292 5065 ft 248 kts 339°
2026-05-07 11:13 55.86882 -4.05129 4680 ft 247 kts 339°
2026-05-07 11:13 55.88534 -4.05962 4301 ft 245 kts 339°
2026-05-07 11:13 55.90148 -4.06776 4081 ft 237 kts 339°
2026-05-07 11:13 55.91697 -4.07557 3894 ft 224 kts 339°
2026-05-07 11:14 55.93159 -4.08281 3691 ft 210 kts 338°
2026-05-07 11:14 55.94354 -4.09436 3500 ft 188 kts 306°
2026-05-07 11:14 55.94927 -4.11411 3474 ft 177 kts 280°
2026-05-07 11:14 55.95270 -4.13507 3477 ft 174 kts 279°
2026-05-07 11:15 55.95606 -4.15547 3197 ft 172 kts 279°
2026-05-07 11:15 55.95700 -4.17646 2984 ft 169 kts 259°
2026-05-07 11:15 55.95592 -4.19736 2972 ft 169 kts 259°
2026-05-07 11:15 55.95492 -4.21825 2983 ft 168 kts 259°
2026-05-07 11:16 55.95399 -4.23878 2853 ft 165 kts 259°
2026-05-07 11:16 55.95312 -4.25944 2500 ft 167 kts 259°
2026-05-07 11:16 55.95088 -4.27928 2088 ft 162 kts 240°
2026-05-07 11:16 55.94464 -4.29546 1929 ft 153 kts 227°
2026-05-07 11:17 55.93768 -4.30934 1771 ft 144 kts 224°
2026-05-07 11:17 55.93094 -4.32242 1584 ft 143 kts 224°
2026-05-07 11:17 55.92417 -4.33522 1406 ft 140 kts 223°
2026-05-07 11:17 55.91754 -4.34769 1232 ft 129 kts 223°
2026-05-07 11:18 55.91154 -4.35896 1012 ft 119 kts 220°
2026-05-07 11:18 55.90580 -4.36967 847 ft 122 kts 222°
2026-05-07 11:18 55.90025 -4.38005 709 ft 117 kts 219°
2026-05-07 11:18 55.89449 -4.39103 516 ft 117 kts 221°
2026-05-07 11:19 55.88886 -4.40172 363 ft 123 kts 222°
2026-05-07 11:19 55.88295 -4.41279 208 ft 120 kts 219°
2026-05-07 11:19 55.87717 -4.42347 60 ft 119 kts 218°
2026-05-07 11:19 55.87177 -4.43334 42 ft 100 kts 224°
2026-05-07 11:20 55.86791 -4.44068 39 ft 65 kts 227°
2026-05-07 11:20 55.86599 -4.44411 45 ft 28 kts 216°
2026-05-07 11:20 55.86432 -4.44529 40 ft 15 kts 186°
2026-05-07 11:20 55.86369 -4.44451 38 ft 10 kts 78°
2026-05-07 11:21 55.86395 -4.44376 38 ft 12 kts 51°
2026-05-07 11:21 55.86447 -4.44274 38 ft 1 kts 47°
2026-05-07 11:21 55.86460 -4.44247 38 ft 4 kts 47°
2026-05-07 11:21 55.86487 -4.44195 38 ft 7 kts 47°
2026-05-07 11:22 55.86528 -4.44116 38 ft 10 kts 47°
2026-05-07 11:22 55.86537 -4.44099 38 ft 0 kts 47°
2026-05-07 11:22 55.86550 -4.44075 38 ft 5 kts 46°
2026-05-07 11:23 55.86587 -4.44005 38 ft 10 kts 46°
2026-05-07 11:23 55.86641 -4.43905 38 ft 11 kts 46°
2026-05-07 11:23 55.86682 -4.43830 38 ft 5 kts 46°
2026-05-07 11:23 55.86715 -4.43765 38 ft 9 kts 59°
2026-05-07 11:24 55.86735 -4.43678 37 ft 3 kts 72°
2026-05-07 11:24 55.86728 -4.43621 38 ft 7 kts 138°
2026-05-07 11:24 55.86671 -4.43584 38 ft 11 kts 165°
2026-05-07 11:24 55.86618 -4.43558 38 ft 2 kts 165°
2026-05-07 11:25 55.86591 -4.43569 38 ft 6 kts 225°
2026-05-07 11:25 55.86572 -4.43657 38 ft 4 kts 257°
2026-05-07 11:25 55.86569 -4.43682 38 ft 3 kts 257°
2026-05-07 11:25 55.86568 -4.43688 38 ft 1 kts 255°
2026-05-07 11:26 55.86565 -4.43711 38 ft 0 kts 254°